TimeEST,TemperatureF,Dew PointF,Humidity,Sea Level PressureIn,VisibilityMPH,Wind Direction,Wind SpeedMPH,Gust SpeedMPH,PrecipitationIn,Events,Conditions,WindDirDegrees,DateUTC
12:53 AM,26.1,21.9,84,30.06,10.0,NE,6.9,-,N/A,,Overcast,50,2012-12-20 05:53:00
1:44 AM,26.6,21.2,80,30.03,10.0,NE,6.9,-,N/A,,Overcast,40,2012-12-20 06:44:00
1:51 AM,24.8,21.2,86,30.04,10.0,NE,5.8,-,N/A,,Overcast,40,2012-12-20 06:51:00
1:53 AM,25.0,21.9,88,30.07,10.0,NE,6.9,-,N/A,,Overcast,40,2012-12-20 06:53:00
2:53 AM,25.0,23.0,92,30.09,10.0,Calm,Calm,-,N/A,,Overcast,0,2012-12-20 07:53:00
3:14 AM,24.8,23.0,93,30.06,10.0,NNE,3.5,-,N/A,,Overcast,30,2012-12-20 08:14:00
3:18 AM,24.8,21.2,86,30.06,10.0,Calm,Calm,-,N/A,,Overcast,0,2012-12-20 08:18:00
3:40 AM,24.8,23.0,93,30.06,3.0,Calm,Calm,-,0.00,Snow,Light Snow,0,2012-12-20 08:40:00
3:53 AM,25.0,23.0,92,30.11,7.0,Calm,Calm,-,0.00,,Overcast,0,2012-12-20 08:53:00
4:19 AM,24.8,23.0,93,30.07,2.5,Calm,Calm,-,0.00,Snow,Light Snow,0,2012-12-20 09:19:00
4:53 AM,25.0,23.0,92,30.12,2.5,Calm,Calm,-,0.00,Snow,Light Snow,0,2012-12-20 09:53:00
5:21 AM,24.8,23.0,93,30.09,3.0,Calm,Calm,-,0.00,Snow,Light Snow,0,2012-12-20 10:21:00
5:50 AM,24.8,23.0,93,30.10,2.5,Calm,Calm,-,0.00,Snow,Light Snow,0,2012-12-20 10:50:00
5:53 AM,25.0,23.0,92,30.14,2.5,Calm,Calm,-,0.00,Snow,Light Snow,0,2012-12-20 10:53:00
6:06 AM,24.8,23.0,93,30.10,3.0,Calm,Calm,-,0.00,Snow,Light Snow,0,2012-12-20 11:06:00
6:53 AM,25.0,23.0,92,30.15,4.0,Calm,Calm,-,0.00,Snow,Light Snow,0,2012-12-20 11:53:00
7:39 AM,24.8,21.2,86,30.13,2.0,Calm,Calm,-,0.00,Snow,Light Snow,0,2012-12-20 12:39:00
7:53 AM,25.0,23.0,92,30.17,1.8,Calm,Calm,-,0.00,Snow,Light Snow,0,2012-12-20 12:53:00
8:08 AM,24.8,23.0,93,30.13,1.5,Calm,Calm,-,0.00,Snow,Light Snow,0,2012-12-20 13:08:00
8:15 AM,24.8,23.0,93,30.13,2.0,Calm,Calm,-,0.00,Snow,Light Snow,0,2012-12-20 13:15:00
8:41 AM,24.8,23.0,93,30.14,3.0,Calm,Calm,-,0.00,Snow,Light Snow,0,2012-12-20 13:41:00
8:53 AM,26.1,23.0,88,30.17,4.0,Calm,Calm,-,0.00,Snow,Light Snow,0,2012-12-20 13:53:00
9:12 AM,24.8,23.0,93,30.12,4.0,ESE,3.5,-,0.00,Snow,Light Snow,110,2012-12-20 14:12:00
9:53 AM,25.0,23.0,92,30.17,10.0,Calm,Calm,-,0.00,,Overcast,0,2012-12-20 14:53:00
10:28 AM,26.6,24.8,93,30.13,10.0,Variable,3.5,-,N/A,,Mostly Cloudy,0,2012-12-20 15:28:00
10:53 AM,26.1,23.0,88,30.18,10.0,SSW,4.6,-,N/A,,Overcast,200,2012-12-20 15:53:00
11:53 AM,27.0,23.0,85,30.16,10.0,WNW,3.5,-,N/A,,Overcast,300,2012-12-20 16:53:00
12:53 PM,27.0,23.0,85,30.15,10.0,Calm,Calm,-,N/A,,Overcast,0,2012-12-20 17:53:00
1:53 PM,27.0,23.0,85,30.16,10.0,NW,4.6,-,N/A,,Overcast,320,2012-12-20 18:53:00
2:53 PM,27.0,24.1,89,30.14,10.0,NE,3.5,-,N/A,,Overcast,40,2012-12-20 19:53:00
3:53 PM,27.0,24.1,89,30.16,10.0,Calm,Calm,-,N/A,,Overcast,0,2012-12-20 20:53:00
4:53 PM,26.1,24.1,92,30.17,10.0,WNW,3.5,-,N/A,,Overcast,300,2012-12-20 21:53:00
5:30 PM,26.6,23.0,86,30.12,10.0,Calm,Calm,-,N/A,,Overcast,0,2012-12-20 22:30:00
5:53 PM,26.1,24.1,92,30.16,10.0,Calm,Calm,-,N/A,,Overcast,0,2012-12-20 22:53:00
6:04 PM,26.6,23.0,86,30.12,10.0,Calm,Calm,-,N/A,,Overcast,0,2012-12-20 23:04:00
6:53 PM,25.0,23.0,92,30.17,10.0,Calm,Calm,-,N/A,,Overcast,0,2012-12-20 23:53:00
7:17 PM,24.8,23.0,93,30.13,10.0,West,3.5,-,N/A,,Overcast,260,2012-12-21 00:17:00
7:53 PM,25.0,23.0,92,30.16,10.0,Calm,Calm,-,N/A,,Overcast,0,2012-12-21 00:53:00
8:53 PM,25.0,23.0,92,30.14,9.0,Calm,Calm,-,N/A,,Overcast,0,2012-12-21 01:53:00
9:53 PM,24.1,23.0,96,30.12,9.0,Calm,Calm,-,N/A,,Overcast,0,2012-12-21 02:53:00
10:53 PM,24.1,21.9,91,30.09,5.0,ESE,6.9,-,N/A,,Overcast,110,2012-12-21 03:53:00
11:53 PM,24.1,23.0,96,30.09,6.0,SSE,3.5,-,N/A,,Overcast,160,2012-12-21 04:53:00